Kuchera_Ratio
0.0 0.0 0.0 0.0 0.0 0.0 0.0 0.0 0.0 0.0 0.0 0.0 0.0 0.0 0.0 0.0 0.0 0.0 0.0 0.0 0.0 0.0 0.0 0.0 0.0 0.0 0.0 0.0 0.0 0.0 0.0 0.0 0.0 0.0 0.0 0.0 0.0 0.0
0.0 0.0 0.0 0.0 0.0 0.0 0.0 0.0 0.0 0.0 0.0 0.0 0.0 0.0 0.0 0.0 0.0 0.0 0.0 0.0 0.0 0.0 0.0 0.0 0.0 0.0 0.0 0.0 0.0 0.0 0.0 0.0 0.0 0.0 0.0 0.0 0.0 0.0
0.0 0.0 0.0 0.0 0.0 0.0 0.0 0.0 0.0 0.0 0.0 0.0 0.0 0.0 0.0 0.0 0.0 0.0 0.0 0.0 0.0 0.0 0.0 0.0 0.0 0.0 0.0 0.0 0.0 0.0 0.0 0.0 0.0 0.0 0.0 0.0 0.0 0.0
0.0 0.0 0.0 0.0 0.0 0.0 0.0 0.0 0.0 0.0 0.0 0.0 0.0 0.0 0.0 0.0 0.0 0.0 0.0 0.0 0.0 0.0 0.0 0.0 0.0 0.0 0.0 0.0 0.0 0.0 0.0 0.0 0.0 0.0 0.0 0.0 0.0 0.0
0.0 0.0 0.0 0.0 0.0 0.0 0.0 0.0 0.0 0.0 0.0 0.0 0.0 0.0 0.0 0.0 0.0 0.0 0.0 0.0 0.0 0.0 0.0 0.0 0.0 0.0 0.0 0.0 0.0 0.0 0.0 0.0 0.0 0.0 0.0 0.0 0.0 0.0
0.0 0.0 0.0 0.0 0.0 0.0 0.0 0.0 0.0 0.0 0.0 0.0 0.0 0.0 0.0 0.0 0.0 1.0 1.9 1.5 1.1 0.0 0.0 0.0 0.0 0.0 0.0 0.0 0.0 0.0 0.0 0.0 0.0 0.0 0.0 0.0 0.0 0.0
0.0 0.0 0.0 0.0 0.0 0.0 0.0 0.0 0.0 0.0 0.0 0.0 0.0 0.6 1.4 1.3 1.8 1.7 2.3 2.1 2.0 1.6 1.7 2.1 0.8 0.5 0.0 0.0 0.0 0.0 0.0 0.0 0.0 0.0 0.0 0.0 0.0 0.0
0.0 0.0 0.0 0.0 0.0 0.0 0.0 0.0 0.0 0.0 0.0 0.0 0.0 0.6 1.2 1.5 2.1 1.8 2.6 2.3 2.0 1.8 2.0 2.8 3.0 3.4 2.3 0.0 0.0 0.0 0.0 0.0 0.0 0.0 0.0 0.0 0.0 0.0
0.0 0.0 0.0 0.0 0.0 0.0 0.0 0.0 0.0 0.0 0.0 0.0 0.6 2.1 1.7 2.3 1.4 2.3 2.8 2.4 2.0 2.0 2.8 3.7 4.1 4.3 4.1 0.6 0.0 0.0 0.0 0.0 0.0 0.0 0.0 0.0 0.0 0.0
0.8 0.4 0.9 1.6 1.6 2.4 2.8 2.5 2.5 1.6 0.0 0.0 0.0 0.4 0.7 1.8 1.6 2.2 2.8 2.4 2.3 2.5 3.4 4.1 4.9 5.6 6.2 3.4 0.0 0.0 0.0 0.0 0.0 0.0 0.0 0.0 0.0 0.0
1.6 1.3 1.6 3.7 0.0 0.0 3.9 4.7 5.0 4.7 0.0 0.0 0.0 0.0 0.0 0.0 2.9 2.9 3.1 2.9 2.7 3.6 4.6 5.4 6.6 6.9 7.1 7.4 4.9 0.0 0.0 0.0 0.0 0.0 0.0 0.0 0.0 0.0
3.7 2.2 0.0 1.3 0.0 0.0 4.9 5.1 5.7 3.8 3.1 2.4 2.7 0.7 1.4 0.9 0.3 3.4 3.5 3.7 4.3 5.4 6.0 6.7 7.6 8.2 8.4 8.9 8.9 6.4 5.5 0.0 0.0 0.0 0.0 0.0 0.0 2.0
6.1 5.5 4.9 0.0 0.0 0.0 0.7 5.3 5.5 3.7 3.6 3.8 2.6 2.1 3.2 4.4 4.9 4.5 4.5 4.8 5.6 6.7 7.2 7.4 8.4 9.6 9.8 10.7 11.3 10.0 9.5 9.0 8.5 7.9 3.0 0.9 0.0 0.0
6.7 6.2 5.7 0.0 0.0 0.0 1.4 0.0 0.0 1.8 4.3 3.9 3.2 4.5 4.8 5.4 5.4 5.2 5.6 6.3 6.8 7.3 8.0 8.5 9.2 10.1 10.4 10.8 11.9 12.1 12.1 8.6 11.1 10.6 9.2 6.1 1.7 0.5
5.7 4.9 0.9 0.0 0.0 0.4 0.0 0.0 0.0 4.9 4.3 4.5 5.6 6.1 6.0 6.1 5.8 6.1 7.1 7.4 8.1 8.7 8.5 9.2 10.9 11.0 10.9 11.3 12.2 12.3 12.5 12.2 10.9 12.8 10.7 10.7 11.4 6.8
1.5 4.1 1.5 2.1 1.9 4.6 3.7 3.2 5.2 5.1 5.4 6.4 6.8 6.4 6.5 6.7 6.9 7.2 8.0 7.9 8.6 9.3 9.1 8.9 10.6 11.7 12.0 12.4 12.5 12.7 13.7 13.6 13.7 13.2 13.1 12.9 10.0 5.9
7.4 7.7 8.5 8.9 8.6 8.3 7.8 7.0 6.0 6.0 7.0 7.4 7.0 7.0 6.7 7.2 7.7 8.1 8.3 8.6 9.5 10.4 11.4 12.0 9.7 12.2 12.6 13.1 13.2 13.7 13.3 13.3 14.3 14.4 14.1 13.7 13.0 8.8
7.7 10.5 10.2 9.3 9.0 8.9 8.5 7.9 7.4 8.0 8.5 7.9 7.6 7.7 7.9 8.3 8.4 8.2 8.8 9.1 9.7 10.9 12.0 12.5 12.6 13.0 13.0 13.2 9.6 13.3 13.1 14.8 14.3 13.8 13.9 14.0 13.6 11.9
8.5 10.0 10.0 9.8 10.1 9.7 9.3 9.0 8.9 9.2 9.0 7.7 7.8 8.5 8.7 9.0 9.0 9.4 9.9 10.1 10.8 11.6 12.3 13.0 13.2 13.6 13.6 13.3 13.9 5.8 13.9 14.8 13.5 14.5 14.4 14.9 14.9 13.2
8.0 9.4 10.1 10.8 10.7 10.1 10.0 9.6 9.5 8.9 8.0 8.6 9.0 9.2 9.1 9.3 9.5 10.3 11.0 11.4 12.1 12.5 12.9 13.9 14.2 14.1 14.1 14.1 13.8 13.8 8.0 14.6 14.8 15.2 15.8 14.1 12.8 6.9
7.4 9.2 9.0 9.9 10.7 10.3 9.6 9.4 9.4 9.2 9.0 9.2 9.3 9.7 10.2 10.1 10.1 11.4 12.1 12.3 12.8 13.2 13.5 14.4 13.9 9.5 14.4 14.6 14.4 14.2 15.1 7.5 11.7 15.6 15.6 14.9 15.2 14.6
7.4 8.3 8.7 9.4 9.5 9.6 9.5 9.6 9.8 9.5 9.6 10.0 10.0 10.2 10.4 11.1 11.1 11.4 12.3 12.9 13.2 13.6 13.8 14.2 14.0 14.4 15.2 15.4 15.1 15.1 15.1 14.4 11.2 7.3 6.6 8.8 14.6 16.1
7.3 8.1 8.2 8.3 8.3 8.8 9.5 9.8 9.6 9.6 10.1 9.9 10.2 10.2 11.0 11.4 11.7 12.0 12.7 12.9 13.1 14.0 14.6 15.2 15.0 15.0 15.1 15.4 15.1 15.8 16.0 15.9 14.7 14.7 13.7 6.9 5.5 5.0